FW5990 Weather Reports


time (UTC)temp
C
wind
direction
speed
KPH
gust
KPH
rain 1hr
cm
rain 24hr
cm
rain mn
cm
humidity
%
barometer
mb
20260505125029 20 62 1.6 3.2 0.00 0.00 0.00 56 1011.5
20260505124534 19 81 1.6 4.8 0.00 0.00 0.00 55 1011.5
20260505124025 18 68 1.6 9.7 0.00 0.00 0.00 56 1011.7
20260505123524 18 44 3.2 9.7 0.00 0.00 0.00 57 1011.9
20260505123029 18 81 3.2 6.4 0.00 0.00 0.00 57 1012.0
20260505122524 18 63 1.6 6.4 0.00 0.00 0.00 57 1012.0
20260505122020 17 35 3.2 6.4 0.00 0.00 0.00 59 1012.1
20260505121522 17 48 1.6 6.4 0.00 0.00 0.00 59 1012.0
20260505121017 16 82 3.2 9.7 0.00 0.00 0.00 60 1012.0
20260505120517 16 44 1.6 8.0 0.00 0.00 0.00 61 1012.0
20260505120030 16 65 1.6 11.3 0.00 0.00 0.00 62 1011.9
20260505115518 16 114 1.6 11.3 0.00 0.00 0.00 63 1012.0
20260505115018 15 91 4.8 9.7 0.00 0.00 0.00 63 1011.9
20260505114519 15 62 4.8 8.0 0.00 0.00 0.00 64 1011.8
20260505114014 15 71 3.2 12.9 0.00 0.00 0.00 66 1011.7
20260505113513 15 63 4.8 12.9 0.00 0.00 0.00 66 1011.8
20260505113013 14 98 3.2 12.9 0.00 0.00 0.00 67 1011.8
20260505112513 13 3 3.2 16.1 0.00 0.00 0.00 69 1011.8
20260505112013 13 34 1.6 16.1 0.00 0.00 0.00 70 1011.7
20260505111517 13 20 4.8 12.9 0.00 0.00 0.00 70 1011.7
20260505111011 13 24 3.2 14.5 0.00 0.00 0.00 71 1011.5
20260505110510 13 32 4.8 14.5 0.00 0.00 0.00 72 1011.4
20260505102004 13 45 4.8 11.3 0.00 0.00 0.00 73 1010.9
20260505101503 13 69 3.2 12.9 0.00 0.00 0.00 73 1010.8
20260505101003 13 37 6.4 12.9 0.00 0.00 0.00 72 1010.8
20260505100600 13 88 4.8 12.9 0.00 0.00 0.00 72 1010.8
20260505100100 13 15 4.8 12.9 0.00 0.00 0.00 72 1010.7
20260505095559 13 45 6.4 12.9 0.00 0.00 0.00 71 1010.7
20260505095101 13 37 6.4 16.1 0.00 0.00 0.00 71 1010.7
20260505094557 13 46 4.8 16.1 0.00 0.00 0.00 72 1010.7
20260505094056 13 40 3.2 12.9 0.00 0.00 0.00 71 1010.7
20260505093556 13 41 3.2 14.5 0.00 0.00 0.00 71 1010.7
20260505093100 13 352 6.4 19.3 0.00 0.00 0.00 71 1010.7
20260505092554 13 158 4.8 12.9 0.00 0.00 0.00 70 1010.6
20260505092055 14 101 1.6 16.1 0.00 0.00 0.00 69 1010.5
20260505091605 14 132 4.8 14.5 0.00 0.00 0.00 69 1010.5
20260505091057 14 184 4.8 14.5 0.00 0.00 0.00 68 1010.5
20260505090554 15 77 4.8 14.5 0.00 0.00 0.00 68 1010.5
20260505090054 15 118 8.0 14.5 0.00 0.00 0.00 67 1010.4
20260505085554 15 150 4.8 14.5 0.00 0.00 0.00 67 1010.4
20260505085053 15 115 6.4 19.3 0.00 0.00 0.00 67 1010.4
20260505084555 15 103 6.4 19.3 0.00 0.00 0.00 67 1010.4
20260505084053 15 174 3.2 16.1 0.00 0.00 0.00 67 1010.4
20260505083554 15 153 4.8 16.1 0.00 0.00 0.00 67 1010.5
20260505083058 15 141 6.4 16.1 0.00 0.00 0.00 67 1010.5
20260505082551 15 153 4.8 16.1 0.00 0.00 0.00 67 1010.4
20260505082052 15 167 3.2 12.9 0.00 0.00 0.00 68 1010.4
20260505081555 15 176 4.8 12.9 0.00 0.00 0.00 67 1010.5
20260505081055 15 135 4.8 16.1 0.00 0.00 0.00 66 1010.4
20260505080551 15 143 4.8 14.5 0.00 0.00 0.00 66 1010.4
20260505080053 15 175 3.2 9.7 0.00 0.00 0.00 65 1010.4
20260505075550 15 167 1.6 8.0 0.00 0.00 0.00 65 1010.3
20260505075050 15 146 3.2 11.3 0.00 0.00 0.00 64 1010.3
20260505074549 15 165 4.8 14.5 0.00 0.00 0.00 65 1010.4
20260505073551 15 151 4.8 11.3 0.00 0.00 0.00 65 1010.3
20260505073054 15 93 4.8 11.3 0.00 0.00 0.00 65 1010.1
20260505072549 15 105 3.2 9.7 0.00 0.00 0.00 65 1010.1
20260505072048 15 65 4.8 12.9 0.00 0.00 0.00 65 1010.1
20260505071558 15 121 4.8 12.9 0.00 0.00 0.00 66 1010.1
20260505071049 14 146 3.2 9.7 0.00 0.00 0.00 69 1010.1
20260505070552 13 114 0.0 3.2 0.00 0.00 0.00 70 1010.1
20260505070048 14 139 0.0 3.2 0.00 0.00 0.00 69 1010.0
20260505065549 14 131 0.0 4.8 0.00 0.00 0.00 68 1010.0
20260505065046 15 126 1.6 4.8 0.00 0.00 0.00 67 1010.1
20260505064549 15 121 1.6 4.8 0.00 0.00 0.00 66 1010.1
20260505064047 15 120 0.0 6.4 0.00 0.00 0.00 65 1010.1
20260505063545 16 142 1.6 6.4 0.00 0.00 0.00 64 1010.1
20260505063045 16 134 1.6 9.7 0.00 0.00 0.00 63 1010.1
20260505062545 16 126 0.0 9.7 0.00 0.00 0.00 64 1010.2
20260505062047 16 128 3.2 11.3 0.00 0.00 0.00 62 1010.1
20260505061548 16 159 4.8 11.3 0.00 0.00 0.00 62 1010.1
20260505061044 16 122 1.6 8.0 0.00 0.00 0.00 62 1010.1
20260505060544 16 158 1.6 9.7 0.00 0.00 0.00 62 1010.1
20260505060050 16 143 3.2 14.5 0.00 0.00 0.00 62 1010.1
20260505055546 16 146 3.2 14.5 0.00 0.00 0.00 62 1010.2
20260505055042 16 193 1.6 9.7 0.00 0.00 0.00 64 1010.2
20260505054542 15 144 3.2 11.3 0.00 0.00 0.00 65 1010.2
20260505054042 15 155 4.8 11.3 0.00 0.00 0.00 68 1010.1
20260505053542 14 184 0.0 8.0 0.00 0.00 0.00 70 1010.1
20260505053041 14 153 0.0 1.6 0.00 0.00 0.00 72 1010.1
20260505052539 14 167 0.0 3.2 0.00 0.00 0.00 71 1010.1
20260505052038 15 165 0.0 4.8 0.00 0.00 0.00 69 1010.2
20260505051555 15 150 1.6 4.8 0.00 0.00 0.00 69 1010.2
20260505051040 15 169 0.0 4.8 0.00 0.00 0.00 68 1010.2
20260505050537 16 129 1.6 6.4 0.00 0.00 0.00 65 1010.2
20260505041529 16 121 0.0 6.4 0.00 0.00 0.00 65 1010.3
20260505041029 16 155 1.6 6.4 0.00 0.00 0.00 65 1010.3
20260505040529 16 161 0.0 6.4 0.00 0.00 0.00 65 1010.4
20260505040028 16 117 1.6 6.4 0.00 0.00 0.00 65 1010.5
20260505035529 16 103 0.0 3.2 0.00 0.00 0.00 65 1010.6
20260505035026 16 150 0.0 3.2 0.00 0.00 0.00 65 1010.5
20260505034526 16 146 1.6 3.2 0.00 0.00 0.00 64 1010.5
20260505034026 16 142 0.0 3.2 0.00 0.00 0.00 63 1010.5
20260505033526 16 145 0.0 4.8 0.00 0.00 0.00 62 1010.5
20260505033026 17 165 0.0 9.7 0.00 0.00 0.00 61 1010.5
20260505032526 17 159 3.2 9.7 0.00 0.00 0.00 60 1010.6
20260505032026 17 122 1.6 9.7 0.00 0.00 0.00 59 1010.7
20260505031526 17 158 3.2 9.7 0.00 0.00 0.00 58 1010.6
20260505031025 17 90 1.6 6.4 0.00 0.00 0.00 57 1010.6
20260505030525 18 159 0.0 9.7 0.00 0.00 0.00 56 1010.5
20260505030025 18 212 1.6 14.5 0.00 0.00 0.00 56 1010.6
20260505025525 18 159 6.4 14.5 0.00 0.00 0.00 56 1010.6
20260505025025 18 143 6.4 11.3 0.00 0.00 0.00 56 1010.7
20260505024524 18 173 1.6 9.7 0.00 0.00 0.00 57 1010.6
20260505024023 18 176 1.6 9.7 0.00 0.00 0.00 56 1010.5
20260505023523 18 212 3.2 16.1 0.00 0.00 0.00 56 1010.5
20260505023026 18 218 3.2 16.1 0.00 0.00 0.00 55 1010.7
20260505022523 18 193 3.2 11.3 0.00 0.00 0.00 55 1010.6
20260505022029 18 128 1.6 12.9 0.00 0.00 0.00 55 1010.6
20260505021528 18 126 4.8 12.9 0.00 0.00 0.00 54 1010.5
20260505021024 18 162 4.8 17.7 0.00 0.00 0.00 54 1010.5
20260505020523 18 145 6.4 17.7 0.00 0.00 0.00 54 1010.5
20260505020022 18 165 4.8 12.9 0.00 0.00 0.00 54 1010.6
20260505015522 18 172 0.0 12.9 0.00 0.00 0.00 53 1010.5
20260505015026 18 194 3.2 9.7 0.00 0.00 0.00 53 1010.5
20260505014521 18 209 3.2 14.5 0.00 0.00 0.00 53 1010.5
20260505014029 18 151 4.8 14.5 0.00 0.00 0.00 52 1010.4
20260505013522 18 250 3.2 9.7 0.00 0.00 0.00 52 1010.4
20260505013020 19 203 3.2 14.5 0.00 0.00 0.00 51 1010.4
20260505012520 19 101 4.8 11.3 0.00 0.00 0.00 51 1010.3
20260505012020 19 127 3.2 8.0 0.00 0.00 0.00 50 1010.1
20260505011524 19 200 3.2 6.4 0.00 0.00 0.00 49 1010.1
20260505011021 19 181 1.6 6.4 0.00 0.00 0.00 49 1010.0
20260505010520 20 186 3.2 9.7 0.00 0.00 0.00 49 1010.0
20260505010019 20 139 3.2 0.0 0.00 0.00 0.00 48 1009.8
20260505005520 20 106 1.6 11.3 0.00 0.00 0.00 48 1009.8
20260505005018 20 130 1.6 14.5 0.00 0.00 0.00 48 1009.9
20260505004523 20 179 4.8 14.5 0.00 0.00 0.00 47 1009.8
20260505004117 20 184 4.8 14.5 0.00 0.00 0.00 46 1009.7
20260505003517 21 175 1.6 22.5 0.00 0.00 0.00 46 1009.8
20260505003017 21 204 9.7 22.5 0.00 0.00 0.00 45 1009.8
20260505002517 21 144 3.2 14.5 0.00 0.00 0.00 45 1009.8
20260505002016 21 174 6.4 14.5 0.00 0.00 0.00 45 1009.7
20260505001517 21 158 6.4 20.9 0.00 0.00 0.00 45 1009.6
20260505001018 21 96 6.4 17.7 0.00 0.00 0.00 44 1009.6
20260505000515 21 213 9.7 17.7 0.00 0.00 0.00 44 1009.6
20260505000023 21 151 4.8 16.1 0.00 0.00 0.00 44 1009.7
20260504235515 21 172 3.2 16.1 0.00 0.00 0.00 44 1009.5
20260504235014 21 164 1.6 12.9 0.00 0.00 0.00 44 1009.5
20260504234513 21 140 4.8 14.5 0.00 0.00 0.00 43 1009.4
20260504234013 21 220 3.2 16.1 0.00 0.00 0.00 43 1009.5
20260504233513 21 153 1.6 17.7 0.00 0.00 0.00 43 1009.3
20260504233014 21 160 6.4 17.7 0.00 0.00 0.00 42 1009.4
20260504232513 21 63 4.8 19.3 0.00 0.00 0.00 42 1009.3
20260504232015 21 158 4.8 22.5 0.00 0.00 0.00 41 1009.2
20260504231513 21 86 8.0 22.5 0.00 0.00 0.00 41 1009.3
20260504231012 22 37 1.6 16.1 0.00 0.00 0.00 41 1009.2
20260504230512 22 147 1.6 14.5 0.00 0.00 0.00 40 1009.3
20260504230014 22 102 4.8 20.9 0.00 0.00 0.00 41 1009.2
20260504225511 22 92 4.8 20.9 0.00 0.00 0.00 40 1009.2
20260504225017 22 191 4.8 22.5 0.00 0.00 0.00 39 1009.1
20260504224510 22 86 8.0 22.5 0.00 0.00 0.00 38 1009.1
20260504224010 22 78 8.0 14.5 0.00 0.00 0.00 38 1009.1
20260504223511 23 178 3.2 19.3 0.00 0.00 0.00 38 1009.0
20260504223010 23 88 8.0 19.3 0.00 0.00 0.00 37 1009.0
20260504222509 23 200 6.4 17.7 0.00 0.00 0.00 37 1009.0
20260504222012 24 111 3.2 25.7 0.00 0.00 0.00 36 1008.9
20260504221508 24 79 6.4 25.7 0.00 0.00 0.00 35 1008.7
20260504221009 24 224 4.8 19.3 0.00 0.00 0.00 35 1008.8
20260504220511 24 142 3.2 16.1 0.00 0.00 0.00 35 1008.8
20260504220009 25 135 6.4 19.3 0.00 0.00 0.00 34 1008.8
20260504215508 25 118 1.6 16.1 0.00 0.00 0.00 33 1008.8
20260504215007 25 177 9.7 16.1 0.00 0.00 0.00 33 1008.8
20260504214517 24 97 6.4 19.3 0.00 0.00 0.00 35 1008.8
20260504214014 25 103 8.0 17.7 0.00 0.00 0.00 34 1008.7
20260504213506 24 87 9.7 17.7 0.00 0.00 0.00 35 1008.8
20260504213006 24 180 4.8 17.7 0.00 0.00 0.00 35 1008.7
20260504212506 24 129 6.4 17.7 0.00 0.00 0.00 33 1008.7
20260504212006 24 53 6.4 11.3 0.00 0.00 0.00 34 1008.6
20260504211507 23 254 3.2 12.9 0.00 0.00 0.00 36 1008.7
20260504211004 23 214 1.6 17.7 0.00 0.00 0.00 35 1008.8
20260504210504 23 122 6.4 19.3 0.00 0.00 0.00 35 1008.8
20260504210003 22 159 4.8 19.3 0.00 0.00 0.00 35 1008.9
20260504205503 23 1 4.8 16.1 0.00 0.00 0.00 35 1008.8
20260504205002 23 227 3.2 14.5 0.00 0.00 0.00 35 1008.9
20260504204503 23 168 3.2 12.9 0.00 0.00 0.00 35 1009.0
20260504204002 23 328 6.4 17.7 0.00 0.00 0.00 34 1008.9
20260504203505 23 131 6.4 17.7 0.00 0.00 0.00 34 1008.9
20260504203002 23 96 8.0 19.3 0.00 0.00 0.00 34 1009.0
20260504202501 23 25 6.4 19.3 0.00 0.00 0.00 33 1008.9
20260504202001 23 126 6.4 27.4 0.00 0.00 0.00 35 1009.0
20260504201630 23 83 6.4 27.4 0.00 0.00 0.00 33 1009.1
20260504201100 23 37 9.7 22.5 0.00 0.00 0.00 32 1009.1
20260504200559 23 193 6.4 19.3 0.00 0.00 0.00 34 1009.2
20260504200107 23 139 8.0 19.3 0.00 0.00 0.00 32 1009.3
20260504195558 23 90 6.4 24.1 0.00 0.00 0.00 33 1009.3
20260504195057 24 191 3.2 24.1 0.00 0.00 0.00 32 1009.4
20260504194604 24 99 6.4 20.9 0.00 0.00 0.00 32 1009.4
20260504194056 24 240 3.2 20.9 0.00 0.00 0.00 33 1009.5
20260504193556 25 175 8.0 20.9 0.00 0.00 0.00 32 1009.6
20260504193059 24 136 3.2 20.9 0.00 0.00 0.00 30 1009.7
20260504192553 24 157 4.8 17.7 0.00 0.00 0.00 32 1009.8
20260504192100 24 141 6.4 17.7 0.00 0.00 0.00 31 1010.0
20260504191600 24 140 4.8 14.5 0.00 0.00 0.00 31 1010.0
20260504191052 24 111 1.6 11.3 0.00 0.00 0.00 35 1010.1
20260504190550 23 120 1.6 30.6 0.00 0.00 0.00 32 1010.1
20260504190107 23 124 4.8 30.6 0.00 0.00 0.00 34 1010.2
20260504185551 23 134 4.8 20.9 0.00 0.00 0.00 34 1010.2
20260504185048 23 47 8.0 19.3 0.00 0.00 0.00 34 1010.3
20260504184603 23 46 6.4 20.9 0.00 0.00 0.00 34 1010.4
20260504184046 23 73 6.4 20.9 0.00 0.00 0.00 35 1010.6
20260504183546 23 217 4.8 17.7 0.00 0.00 0.00 35 1010.6
20260504183045 23 199 6.4 22.5 0.00 0.00 0.00 33 1010.7
20260504182543 22 26 1.6 22.5 0.00 0.00 0.00 37 1010.8
20260504182043 22 360 8.0 20.9 0.00 0.00 0.00 36 1010.9
20260504181547 23 351 4.8 19.3 0.00 0.00 0.00 34 1011.0
20260504181042 22 134 3.2 17.7 0.00 0.00 0.00 38 1011.1
20260504180541 22 216 9.7 19.3 0.00 0.00 0.00 34 1011.1
20260504180042 22 125 6.4 19.3 0.00 0.00 0.00 35 1011.1
20260504175538 22 147 4.8 16.1 0.00 0.00 0.00 35 1011.3
20260504175037 22 149 3.2 17.7 0.00 0.00 0.00 37 1011.4
20260504174539 22 162 8.0 17.7 0.00 0.00 0.00 35 1011.4
20260504174037 22 124 6.4 16.1 0.00 0.00 0.00 36 1011.5
20260504173541 22 127 6.4 16.1 0.00 0.00 0.00 34 1011.5
20260504173036 22 203 3.2 19.3 0.00 0.00 0.00 35 1011.7
20260504172534 22 207 4.8 17.7 0.00 0.00 0.00 36 1011.7
20260504172034 22 137 4.8 17.7 0.00 0.00 0.00 35 1011.9
20260504171534 22 86 4.8 16.1 0.00 0.00 0.00 36 1011.9
20260504171034 21 293 4.8 14.5 0.00 0.00 0.00 35 1011.9
20260504170533 21 92 6.4 14.5 0.00 0.00 0.00 36 1012.1
20260504151011 19 106 1.6 11.3 0.00 0.00 0.00 40 1013.6
20260504150511 18 49 3.2 16.1 0.00 0.00 0.00 39 1013.5
20260504141002 17 107 3.2 14.5 0.00 0.00 0.00 42 1013.8
20260504140501 17 181 4.8 14.5 0.00 0.00 0.00 40 1013.9
20260504140112 16 191 3.2 17.7 0.00 0.00 0.00 44 1013.9
20260504130548 15 65 8.0 14.5 0.00 0.00 0.00 42 1014.1